Regional Weather Roundup
Issued by NWS State College, PA

Home | Current Version | Previous Version | Text Only | Print | Product List | Glossary Off
Versions: 1 2 3 4 5 6 7 8 9 10 11 12 13 14 15 16 17 18 19 20 21 22 23 24 25 26 27 28 29 30 31 32 33 34 35 36 37 38 39 40 41 42 43 44 45 46 47 48 49 50

000
ASUS41 KCTP 300110
RWRCTP

REGIONAL WEATHER ROUNDUP
NATIONAL WEATHER SERVICE STATE COLLEGE PA
900 PM EDT FRI APR 29 2016

Note: "fair" indicates few or no clouds below 12,000 feet with no
significant weather and/or obstructions to visibility.

* = STATION THAT DOES NOT REPORT PRECIPITATION /E.G. RAIN...SNOW...ETC/
    THUNDER OR FOG.

PAZ002>004-007>009-013>016-020>023-029>032-300200-
WESTERN PENNSYLVANIA

CITY           SKY/WX    TMP DP  RH WIND       PRES   REMARKS
ERIE           CLOUDY    43  36  76 NW3       30.13R
MEADVILLE      CLOUDY    40  39  97 VRB3      30.11R
FRANKLIN*      CLOUDY    45  41  87 NW5       30.12R
NEW CASTLE     CLOUDY    46  44  93 NW5       30.11R
BEAVER COUNTY  CLOUDY    48  45  87 NW7       30.09R
BUTLER*        CLOUDY    48  45  87 NW3       30.11R
PITTSBURGH INT CLOUDY    51  46  83 W7        30.08R
PITTSBURGH     CLOUDY    51  46  83 NW6       30.07R
INDIANA*       CLOUDY    50  50 100 CALM      30.11R
LATROBE        CLOUDY    50  50 100 CALM      30.08R
WASHINGTON CO* CLOUDY    50  46  87 N6        30.08S
$$

PAZ004>006-010>012-017>019-024>028-033>037-041-042-045-046-049>053-300200-
CENTRAL PENNSYLVANIA

CITY           SKY/WX    TMP DP  RH WIND       PRES   REMARKS
BRADFORD       CLOUDY    44  42  93 CALM      30.07R
DUBOIS         CLOUDY    46  45  96 W5        30.07R
CLEARFIELD     LGT RAIN  46  44  93 NE3       30.07R FOG
JOHNSTOWN      CLOUDY    47  43  86 W6        30.05S FOG
ALTOONA        CLOUDY    48  46  93 S5        30.08R FOG
STATE COLLEGE  CLOUDY    45  45 100 CALM      30.08R FOG
WILLIAMSPORT   CLOUDY    47  44  90 CALM      30.09S
SELINSGROVE    CLOUDY    47  45  93 NE3       30.10R FOG
FT INDIANTOWN  CLOUDY    48  46  93 VRB1      30.11R
CAPITAL CITY   CLOUDY    49  46  90 NE6       30.11R FOG
HARRISBURG     DRIZZLE   49  46  90 NE3       30.10R FOG
YORK           LGT RAIN  50  48  93 CALM      30.09R
$$

PAZ038>040-043-044-047-048-054-055-060>062-067>071-300200-
EASTERN PENNSYLVANIA

CITY           SKY/WX    TMP DP  RH WIND       PRES   REMARKS
SCRANTON       LGT RAIN  44  41  89 CALM      30.11R FOG
MOUNT POCONO   LGT RAIN  38  36  92 SE3       30.09R FOG
ALLENTOWN      CLOUDY    47  38  71 NE6       30.12R
QUAKERTOWN*    CLOUDY    46  39  76 E3        30.12R
READING        CLOUDY    48  40  73 NE5       30.10R
LANCASTER      CLOUDY    48  44  86 E5        30.10R
COATESVILLE    CLOUDY    46  46 100 E7        30.10R
POTTSTOWN      CLOUDY    47  40  76 E3        30.11R
BLUE BELL      CLOUDY    45  41  87 E5        30.09R
DOYLESTOWN     CLOUDY    45  37  73 CALM      30.10R
WILLOW GROVE   NOT AVBL
NORTH PHILA    CLOUDY    48  39  71 E12       30.11R
PHILADELPHIA   CLOUDY    49  40  71 E10       30.11R
$$




USA.gov is the U.S. government's official web portal to all federal, state and local government web resources and services.